User: anonymous   Login
Location: Unspecified
(0.0000°N, 0.0000°E)
Time: 16:33:22
(UTC+00:00)
Language:

OPS 7613 P/L 1 - Orbit

View from above orbital plane
View from above orbital plane
View from above satellite
View from above satellite

Ground track
Ground track

The orbit data is extracted from the following two-line orbital elements,

1  4256U 69082B   17204.90309409 +.00000002 +00000-0 +38549-4 0  9995
2  4256 070.0107 099.8896 0019873 351.0952 008.9799 13.98261017436032
Epoch (UTC): 23 July 2017 21:40:27
Eccentricity: 0.0019873
inclination: 70.0107°
perigee height: 885 km
apogee height: 914 km
right ascension of ascending node: 99.8896°
argument of perigee: 351.0952°
revolutions per day: 13.98261017
mean anomaly at epoch: 8.9799°
orbit number at epoch: 43603

The dashed part of the orbit path shows where the satellite is in the earth's shadow,  

DLR